Location: ??????
(56.0120°N, 39.1740°E)
Time: 15:07:34
(UTC+00:00)

SeaSat 1 - Pass Details

Date: 14 April 2026
Orbit: 736 x 740 km, 108.0° (Epoch: 17 May)

Event Time Altitude Azimuth Distance (km) Brightness Sun altitude
Exits shadow 19:43:05 46° 178° (S) 988 2.6 -21.1°
Maximum altitude 19:44:23 66° 239° (WSW) 811 2.5 -21.2°
Drops below altitude 10° 19:49:17 10° 322° (NW) 2,261 6.0 -21.5°
Sets 19:51:35 0° 325° (NW) 3,188 7.2 -21.6°
